Location: Drignac
(45.1667°N, 2.0333°E)
Time: 13:20:33
(UTC+00:00)

CZ-2C R/B - Pass Details

Date: 29 March 2020
Orbit: 705 x 907 km, 98.1° (Epoch: 27 May)

Event Time Altitude Azimuth Distance (km) Brightness Sun altitude
Rises 19:45:21 0° 175° (S) 3,276 6.0 -16.0°
Reaches altitude 10° 19:47:45 10° 179° (S) 2,321 5.3 -16.3°
Maximum altitude 19:52:46 59° 259° (W) 864 3.5 -17.2°
Drops below altitude 10° 19:57:36 10° 339° (NNW) 2,231 6.0 -17.9°
Sets 19:59:53 0° 344° (NNW) 3,139 6.8 -18.3°
